ACA714 CYYZ-KCMH

Flight info

Callsign ACA714
Flight time 0h 54m
Altitude 38000
Route MIXUT7 GNTRY DCT WWSHR CBUSS2
Aircraft B38M/M-SDE1FGHILORVWXY/HB1

Departure

Time 2026-05-09 01:14
Airport Toronto Pearson International Airport (CYYZ)

Arrival

Time 2026-05-09 02:09
Airport John Glenn Columbus International Airport (KCMH)
Time Latitude Longitude Altitude Speed Heading
2026-05-09 00:42 43.68004 -79.61469 570 ft 0 kts 317°
2026-05-09 01:02 43.68002 -79.61466 570 ft 2 kts 317°
2026-05-09 01:03 43.67991 -79.61453 570 ft 2 kts 317°
2026-05-09 01:03 43.67980 -79.61438 570 ft 2 kts 317°
2026-05-09 01:03 43.67970 -79.61426 570 ft 0 kts 317°
2026-05-09 01:03 43.67962 -79.61415 570 ft 2 kts 310°
2026-05-09 01:04 43.67953 -79.61398 570 ft 2 kts 300°
2026-05-09 01:04 43.67947 -79.61380 570 ft 2 kts 290°
2026-05-09 01:04 43.67944 -79.61371 570 ft 1 kts 285°
2026-05-09 01:04 43.67944 -79.61369 570 ft 0 kts 286°
2026-05-09 01:07 43.67944 -79.61375 570 ft 2 kts 260°
2026-05-09 01:07 43.67912 -79.61415 569 ft 12 kts 217°
2026-05-09 01:08 43.67836 -79.61514 569 ft 13 kts 221°
2026-05-09 01:08 43.67772 -79.61596 569 ft 11 kts 223°
2026-05-09 01:08 43.67709 -79.61655 569 ft 12 kts 182°
2026-05-09 01:08 43.67626 -79.61681 568 ft 13 kts 216°
2026-05-09 01:09 43.67556 -79.61746 567 ft 11 kts 180°
2026-05-09 01:09 43.67488 -79.61678 566 ft 16 kts 134°
2026-05-09 01:09 43.67386 -79.61542 563 ft 20 kts 138°
2026-05-09 01:09 43.67295 -79.61420 560 ft 15 kts 135°
2026-05-09 01:10 43.67224 -79.61328 559 ft 12 kts 124°
2026-05-09 01:10 43.67249 -79.61237 559 ft 12 kts 50°
2026-05-09 01:10 43.67316 -79.61114 559 ft 18 kts 51°
2026-05-09 01:10 43.67401 -79.60960 559 ft 19 kts 54°
2026-05-09 01:11 43.67477 -79.60828 559 ft 15 kts 48°
2026-05-09 01:11 43.67549 -79.60712 558 ft 15 kts 43°
2026-05-09 01:11 43.67629 -79.60604 559 ft 17 kts 46°
2026-05-09 01:11 43.67722 -79.60467 557 ft 21 kts 47°
2026-05-09 01:12 43.67825 -79.60319 557 ft 22 kts 45°
2026-05-09 01:12 43.67934 -79.60158 556 ft 21 kts 48°
2026-05-09 01:12 43.68021 -79.60023 555 ft 16 kts 61°
2026-05-09 01:12 43.68058 -79.59898 554 ft 12 kts 94°
2026-05-09 01:13 43.68013 -79.59807 552 ft 11 kts 140°
2026-05-09 01:13 43.67950 -79.59722 550 ft 10 kts 134°
2026-05-09 01:13 43.67905 -79.59727 550 ft 7 kts 226°
2026-05-09 01:13 43.67788 -79.59894 550 ft 52 kts 228°
2026-05-09 01:14 43.67403 -79.60458 552 ft 106 kts 226°
2026-05-09 01:14 43.66785 -79.61356 552 ft 149 kts 226°
2026-05-09 01:14 43.66025 -79.62458 862 ft 159 kts 222°
2026-05-09 01:14 43.65260 -79.63559 1480 ft 160 kts 224°
2026-05-09 01:15 43.64517 -79.64674 2089 ft 160 kts 225°
2026-05-09 01:15 43.63747 -79.65809 2440 ft 170 kts 225°
2026-05-09 01:15 43.62889 -79.67090 2609 ft 192 kts 227°
2026-05-09 01:15 43.61929 -79.68529 2748 ft 215 kts 226°
2026-05-09 01:16 43.60884 -79.70035 3221 ft 221 kts 225°
2026-05-09 01:16 43.59724 -79.71546 3511 ft 237 kts 221°
2026-05-09 01:16 43.58425 -79.73038 3886 ft 247 kts 221°
2026-05-09 01:17 43.55849 -79.76369 4800 ft 259 kts 226°
2026-05-09 01:17 43.54578 -79.78114 5363 ft 259 kts 226°
2026-05-09 01:17 43.53292 -79.79850 5872 ft 261 kts 226°
2026-05-09 01:17 43.52001 -79.81593 6439 ft 261 kts 227°
2026-05-09 01:18 43.50693 -79.83360 6933 ft 263 kts 227°
2026-05-09 01:18 43.49387 -79.85119 7422 ft 265 kts 227°
2026-05-09 01:18 43.48064 -79.86897 7913 ft 266 kts 228°
2026-05-09 01:18 43.46741 -79.88678 8451 ft 268 kts 228°
2026-05-09 01:19 43.45404 -79.90474 8985 ft 271 kts 229°
2026-05-09 01:19 43.44060 -79.92274 9543 ft 272 kts 229°
2026-05-09 01:19 43.42695 -79.94102 10086 ft 274 kts 229°
2026-05-09 01:19 43.41320 -79.95952 10394 ft 283 kts 229°
2026-05-09 01:20 43.39877 -79.97895 10532 ft 296 kts 229°
2026-05-09 01:20 43.38377 -79.99906 10749 ft 305 kts 229°
2026-05-09 01:20 43.36833 -80.01965 11050 ft 310 kts 229°
2026-05-09 01:20 43.35275 -80.04031 11411 ft 311 kts 229°
2026-05-09 01:21 43.33726 -80.06088 11826 ft 311 kts 229°
2026-05-09 01:21 43.32162 -80.08183 12180 ft 312 kts 229°
2026-05-09 01:21 43.30619 -80.10250 12541 ft 313 kts 229°
2026-05-09 01:21 43.29050 -80.12338 12860 ft 315 kts 229°
2026-05-09 01:22 43.27459 -80.14453 13155 ft 317 kts 229°
2026-05-09 01:22 43.25892 -80.16551 13500 ft 316 kts 229°
2026-05-09 01:22 43.24321 -80.18664 13799 ft 317 kts 229°
2026-05-09 01:22 43.22731 -80.20801 14148 ft 317 kts 229°
2026-05-09 01:23 43.21142 -80.22916 14596 ft 318 kts 229°
2026-05-09 01:23 43.19548 -80.25035 14889 ft 322 kts 230°
2026-05-09 01:23 43.18216 -80.27456 15256 ft 316 kts 248°
2026-05-09 01:23 43.17411 -80.30184 15762 ft 311 kts 252°
2026-05-09 01:24 43.16702 -80.32508 16069 ft 313 kts 249°
2026-05-09 01:24 43.15753 -80.35206 16358 ft 317 kts 247°
2026-05-09 01:24 43.14776 -80.37928 16596 ft 321 kts 248°
2026-05-09 01:24 43.13799 -80.40675 16988 ft 319 kts 248°
2026-05-09 01:25 43.12822 -80.43399 17240 ft 322 kts 248°
2026-05-09 01:25 43.11828 -80.46141 17649 ft 319 kts 247°
2026-05-09 01:25 43.10834 -80.48872 17880 ft 322 kts 248°
2026-05-09 01:25 43.09840 -80.51614 18131 ft 323 kts 247°
2026-05-09 01:26 43.08839 -80.54382 18392 ft 324 kts 248°
2026-05-09 01:26 43.07837 -80.57137 18586 ft 327 kts 247°
2026-05-09 01:26 43.06818 -80.59929 18863 ft 327 kts 247°
2026-05-09 01:26 43.05802 -80.62695 19105 ft 328 kts 247°
2026-05-09 01:27 43.04774 -80.65492 19356 ft 328 kts 246°
2026-05-09 01:27 43.03731 -80.68322 19579 ft 329 kts 247°
2026-05-09 01:27 43.02702 -80.71112 19870 ft 328 kts 246°
2026-05-09 01:27 43.01668 -80.73935 20066 ft 330 kts 247°
2026-05-09 01:28 43.00646 -80.76739 20320 ft 330 kts 247°
2026-05-09 01:28 42.99628 -80.79523 20564 ft 329 kts 247°
2026-05-09 01:28 42.98609 -80.82302 20742 ft 330 kts 247°
2026-05-09 01:28 42.97568 -80.85123 20885 ft 333 kts 247°
2026-05-09 01:29 42.96524 -80.87937 21098 ft 333 kts 247°
2026-05-09 01:29 42.95473 -80.90774 21308 ft 332 kts 247°
2026-05-09 01:29 42.94440 -80.93573 21415 ft 335 kts 247°
2026-05-09 01:29 42.93385 -80.96439 21633 ft 335 kts 247°
2026-05-09 01:30 42.92334 -80.99287 21761 ft 336 kts 248°
2026-05-09 01:30 42.91289 -81.02114 21916 ft 337 kts 247°
2026-05-09 01:30 42.90226 -81.04982 22151 ft 335 kts 247°
2026-05-09 01:30 42.89171 -81.07815 22298 ft 336 kts 248°
2026-05-09 01:31 42.88079 -81.10742 22460 ft 336 kts 247°
2026-05-09 01:31 42.87020 -81.13586 22617 ft 337 kts 248°
2026-05-09 01:31 42.85972 -81.16410 22792 ft 336 kts 248°
2026-05-09 01:31 42.84904 -81.19285 22910 ft 337 kts 247°
2026-05-09 01:32 42.83852 -81.22104 23107 ft 336 kts 247°
2026-05-09 01:32 42.82782 -81.24962 23215 ft 337 kts 248°
2026-05-09 01:32 42.81735 -81.27760 23463 ft 334 kts 248°
2026-05-09 01:32 42.80683 -81.30578 23569 ft 335 kts 248°
2026-05-09 01:33 42.79614 -81.33443 23660 ft 336 kts 248°
2026-05-09 01:33 42.78560 -81.36250 23850 ft 334 kts 248°
2026-05-09 01:33 42.77502 -81.39048 23962 ft 335 kts 248°
2026-05-09 01:33 42.76424 -81.41881 24043 ft 336 kts 246°
2026-05-09 01:34 42.75086 -81.44524 24234 ft 346 kts 234°
2026-05-09 01:34 42.73361 -81.46810 24582 ft 347 kts 231°
2026-05-09 01:34 42.71652 -81.49096 24731 ft 348 kts 233°
2026-05-09 01:34 42.69981 -81.51497 24918 ft 349 kts 234°
2026-05-09 01:35 42.68306 -81.53934 25117 ft 349 kts 234°
2026-05-09 01:35 42.66665 -81.56310 25410 ft 348 kts 234°
2026-05-09 01:35 42.65011 -81.58687 25571 ft 349 kts 234°
2026-05-09 01:35 42.63325 -81.61096 25781 ft 349 kts 234°
2026-05-09 01:36 42.61655 -81.63500 25951 ft 350 kts 234°
2026-05-09 01:36 42.59974 -81.65934 26131 ft 350 kts 234°
2026-05-09 01:36 42.58318 -81.68353 26395 ft 349 kts 234°
2026-05-09 01:36 42.56637 -81.70796 26598 ft 350 kts 234°
2026-05-09 01:37 42.54979 -81.73190 26822 ft 349 kts 234°
2026-05-09 01:37 42.53314 -81.75577 27155 ft 346 kts 234°
2026-05-09 01:37 42.51676 -81.77915 27420 ft 347 kts 234°
2026-05-09 01:37 42.49920 -81.80194 27662 ft 356 kts 225°
2026-05-09 01:38 42.47642 -81.81754 27910 ft 382 kts 206°
2026-05-09 01:38 42.44935 -81.82149 28178 ft 405 kts 190°
2026-05-09 01:38 42.42092 -81.82089 28446 ft 404 kts 192°
2026-05-09 01:38 42.39308 -81.82298 28706 ft 397 kts 197°
2026-05-09 01:39 42.36601 -81.82724 28951 ft 395 kts 199°
2026-05-09 01:39 42.33873 -81.83215 29223 ft 394 kts 200°
2026-05-09 01:39 42.31143 -81.83730 29477 ft 394 kts 200°
2026-05-09 01:39 42.28458 -81.84261 29714 ft 394 kts 200°
2026-05-09 01:40 42.25720 -81.84830 29842 ft 395 kts 201°
2026-05-09 01:40 42.23019 -81.85412 29854 ft 395 kts 201°
2026-05-09 01:40 42.17580 -81.86624 29859 ft 397 kts 201°
2026-05-09 01:41 42.12147 -81.87830 29860 ft 399 kts 201°
2026-05-09 01:41 42.06632 -81.89039 29865 ft 401 kts 201°
2026-05-09 01:42 42.01114 -81.90245 29858 ft 402 kts 201°
2026-05-09 01:42 41.95628 -81.91496 29861 ft 403 kts 202°
2026-05-09 01:43 41.90086 -81.92762 29857 ft 405 kts 201°
2026-05-09 01:43 41.84471 -81.93996 29861 ft 406 kts 201°
2026-05-09 01:44 41.78892 -81.95242 29859 ft 404 kts 202°
2026-05-09 01:44 41.73346 -81.96516 29870 ft 404 kts 202°
2026-05-09 01:45 41.67812 -81.97739 29871 ft 406 kts 201°
2026-05-09 01:45 41.62223 -81.98936 29874 ft 406 kts 201°
2026-05-09 01:46 41.56605 -82.00184 29876 ft 407 kts 201°
2026-05-09 01:46 41.51366 -82.01341 29869 ft 406 kts 201°
2026-05-09 01:47 41.45787 -82.02616 29871 ft 406 kts 201°
2026-05-09 01:47 41.40171 -82.03906 29871 ft 407 kts 201°
2026-05-09 01:48 41.34611 -82.05177 29875 ft 406 kts 202°
2026-05-09 01:48 41.31885 -82.06046 29877 ft 394 kts 211°
2026-05-09 01:48 41.29385 -82.07417 29881 ft 386 kts 216°
2026-05-09 01:49 41.24401 -82.10288 29872 ft 392 kts 212°
2026-05-09 01:49 41.21878 -82.11576 29718 ft 388 kts 212°
2026-05-09 01:49 41.19389 -82.12871 29179 ft 377 kts 213°
2026-05-09 01:50 41.16988 -82.14152 28737 ft 365 kts 214°
2026-05-09 01:50 41.14629 -82.15391 28237 ft 365 kts 213°
2026-05-09 01:50 41.12269 -82.16634 27709 ft 366 kts 213°
2026-05-09 01:50 41.09914 -82.17886 27162 ft 366 kts 213°
2026-05-09 01:51 41.07543 -82.19127 26613 ft 368 kts 212°
2026-05-09 01:51 41.05155 -82.20368 26049 ft 368 kts 212°
2026-05-09 01:51 41.02776 -82.21615 25495 ft 369 kts 211°
2026-05-09 01:51 41.00365 -82.22862 24941 ft 365 kts 211°
2026-05-09 01:52 40.98040 -82.24071 24405 ft 358 kts 212°
2026-05-09 01:52 40.95731 -82.25278 23868 ft 353 kts 211°
2026-05-09 01:52 40.93453 -82.26444 23349 ft 350 kts 211°
2026-05-09 01:52 40.91207 -82.27598 22835 ft 346 kts 211°
2026-05-09 01:53 40.88943 -82.28776 22305 ft 344 kts 211°
2026-05-09 01:53 40.86694 -82.29929 21774 ft 342 kts 210°
2026-05-09 01:53 40.84464 -82.31068 21247 ft 341 kts 210°
2026-05-09 01:53 40.82281 -82.32198 20733 ft 340 kts 210°
2026-05-09 01:54 40.80068 -82.33353 20201 ft 340 kts 210°
2026-05-09 01:54 40.77865 -82.34510 19677 ft 341 kts 209°
2026-05-09 01:54 40.75663 -82.35657 19149 ft 343 kts 209°
2026-05-09 01:54 40.73415 -82.36813 18619 ft 345 kts 208°
2026-05-09 01:55 40.71188 -82.37949 18074 ft 345 kts 208°
2026-05-09 01:55 40.68962 -82.39091 17577 ft 342 kts 208°
2026-05-09 01:55 40.66745 -82.40237 17086 ft 340 kts 208°
2026-05-09 01:55 40.64560 -82.41366 16568 ft 338 kts 208°
2026-05-09 01:56 40.62349 -82.42494 16036 ft 337 kts 207°
2026-05-09 01:56 40.60169 -82.43578 15507 ft 334 kts 206°
2026-05-09 01:56 40.58001 -82.44643 14981 ft 331 kts 206°
2026-05-09 01:56 40.55861 -82.45668 14459 ft 329 kts 204°
2026-05-09 01:57 40.53651 -82.46486 13940 ft 327 kts 200°
2026-05-09 01:57 40.51473 -82.47216 13432 ft 324 kts 201°
2026-05-09 01:57 40.49316 -82.47988 12922 ft 320 kts 201°
2026-05-09 01:57 40.47180 -82.48779 12416 ft 317 kts 201°
2026-05-09 01:58 40.45039 -82.49558 11910 ft 315 kts 201°
2026-05-09 01:58 40.42939 -82.50302 11412 ft 313 kts 201°
2026-05-09 01:58 40.40827 -82.51044 10911 ft 310 kts 201°
2026-05-09 01:58 40.38750 -82.51792 10436 ft 307 kts 201°
2026-05-09 01:59 40.36735 -82.52537 10165 ft 296 kts 201°
2026-05-09 01:59 40.34800 -82.53237 9965 ft 279 kts 201°
2026-05-09 01:59 40.32920 -82.53910 9597 ft 279 kts 201°
2026-05-09 01:59 40.31043 -82.54595 9184 ft 281 kts 201°
2026-05-09 02:00 40.29154 -82.55264 8792 ft 282 kts 200°
2026-05-09 02:00 40.27263 -82.55910 8400 ft 277 kts 200°
2026-05-09 02:00 40.25447 -82.56550 8020 ft 269 kts 201°
2026-05-09 02:00 40.23663 -82.57205 7648 ft 264 kts 200°
2026-05-09 02:01 40.21874 -82.57833 7273 ft 261 kts 199°
2026-05-09 02:01 40.20119 -82.58318 6915 ft 261 kts 197°
2026-05-09 02:01 40.18342 -82.58778 6549 ft 259 kts 197°
2026-05-09 02:01 40.16581 -82.59249 6169 ft 254 kts 197°
2026-05-09 02:02 40.14828 -82.59717 5798 ft 255 kts 195°
2026-05-09 02:02 40.13101 -82.60207 5408 ft 254 kts 198°
2026-05-09 02:02 40.11381 -82.60745 5049 ft 253 kts 198°
2026-05-09 02:02 40.09695 -82.61284 4709 ft 250 kts 197°
2026-05-09 02:03 40.07998 -82.61825 4358 ft 251 kts 197°
2026-05-09 02:03 40.06303 -82.62359 3983 ft 246 kts 198°
2026-05-09 02:03 40.04635 -82.62907 3631 ft 250 kts 198°
2026-05-09 02:03 40.02948 -82.63481 3283 ft 244 kts 198°
2026-05-09 02:04 40.01456 -82.64305 3073 ft 226 kts 222°
2026-05-09 02:04 40.00576 -82.65882 3003 ft 206 kts 243°
2026-05-09 02:04 39.99943 -82.67503 3005 ft 195 kts 242°
2026-05-09 02:04 39.99312 -82.69107 3002 ft 199 kts 248°
2026-05-09 02:05 39.99162 -82.70858 3008 ft 194 kts 274°
2026-05-09 02:05 39.99290 -82.72510 3005 ft 173 kts 268°
2026-05-09 02:05 39.99361 -82.74005 2892 ft 164 kts 271°
2026-05-09 02:05 39.99441 -82.75477 2699 ft 156 kts 271°
2026-05-09 02:06 39.99524 -82.76815 2493 ft 138 kts 271°
2026-05-09 02:06 39.99592 -82.78082 2325 ft 142 kts 273°
2026-05-09 02:06 39.99666 -82.79360 2111 ft 140 kts 272°
2026-05-09 02:07 39.99812 -82.81914 1731 ft 141 kts 274°
2026-05-09 02:07 39.99905 -82.83185 1512 ft 141 kts 276°
2026-05-09 02:07 39.99974 -82.84486 1332 ft 147 kts 272°
2026-05-09 02:07 40.00029 -82.85808 1129 ft 146 kts 276°
2026-05-09 02:08 40.00114 -82.87140 957 ft 149 kts 275°
2026-05-09 02:08 40.00194 -82.88502 821 ft 146 kts 275°
2026-05-09 02:08 40.00254 -82.89571 817 ft 79 kts 276°
2026-05-09 02:08 40.00285 -82.90156 817 ft 50 kts 276°
2026-05-09 02:09 40.00286 -82.90363 816 ft 14 kts 239°
2026-05-09 02:09 40.00216 -82.90402 816 ft 6 kts 159°
2026-05-09 02:09 40.00205 -82.90350 816 ft 7 kts 89°
2026-05-09 02:09 40.00197 -82.90242 816 ft 15 kts 96°
2026-05-09 02:10 40.00188 -82.90071 817 ft 21 kts 96°
2026-05-09 02:10 40.00174 -82.89878 817 ft 20 kts 93°
2026-05-09 02:10 40.00165 -82.89692 816 ft 21 kts 94°
2026-05-09 02:10 40.00153 -82.89489 817 ft 23 kts 94°
2026-05-09 02:11 40.00140 -82.89291 817 ft 20 kts 94°
2026-05-09 02:11 40.00132 -82.89113 816 ft 18 kts 93°
2026-05-09 02:11 40.00122 -82.88969 816 ft 14 kts 95°
2026-05-09 02:11 40.00114 -82.88837 816 ft 16 kts 95°
2026-05-09 02:12 40.00107 -82.88698 815 ft 12 kts 99°
2026-05-09 02:12 40.00053 -82.88637 815 ft 10 kts 155°
2026-05-09 02:12 40.00023 -82.88548 815 ft 11 kts 89°
2026-05-09 02:12 40.00019 -82.88454 814 ft 9 kts 94°
2026-05-09 02:13 40.00015 -82.88374 814 ft 8 kts 94°
2026-05-09 02:13 40.00003 -82.88313 814 ft 6 kts 129°
2026-05-09 02:13 39.99976 -82.88281 813 ft 4 kts 143°
2026-05-09 02:13 39.99956 -82.88287 813 ft 2 kts 232°
2026-05-09 02:14 39.99951 -82.88309 813 ft 3 kts 260°
2026-05-09 02:14 39.99948 -82.88335 814 ft 1 kts 261°
2026-05-09 02:14 39.99947 -82.88340 814 ft 0 kts 261°